Weather History for New River MCAS, NC

Change the Weather History Date:

Sunday, October 14, 2012

  Actual Average Record
Temperature  
Mean Temperature 65 °F -  
Max Temperature 81 °F 72 °F 82 °F (1997)
Min Temperature 51 °F 52 °F 39 °F (2006)
Growing Degree Days 15 (Base 50)    
Moisture  
Dew Point 55 °F    
Average Humidity 77    
Maximum Humidity 93    
Minimum Humidity 45    
Precipitation  
Precipitation 0.00 in - - ()
Sea Level Pressure  
Sea Level Pressure 30.22 in    
Wind  
Wind Speed 3 mph (ESE)    
Max Wind Speed 10 mph    
Max Gust Speed -    
Visibility 10 miles    
Events      
Averages and records for this station are not official NWS values.
T = Trace of Precipitation, MM = Missing Value Source: NWS Daily Summary

Daily Weather History Graph

Daily Weather History Graph

Search for Another Location

Airport:

Trip Planner

Search our weather history database for the weather conditions in past years. The results will help you decide how hot, cold, wet, or windy it might be!

Date:

Astronomy

Oct. 14, 2012 Rise Set
Actual Time 7:14 AM EDT 6:35 PM EDT
Civil Twilight 6:49 AM EDT 7:01 PM EDT
Nautical Twilight 6:20 AM EDT 7:30 PM EDT
Astronomical Twilight 5:51 AM EDT 7:59 PM EDT
Moon 6:12 AM EDT 5:54 PM EDT
Length of Visible Light 12h 11m
Length of Day
11h 20m
Waning Crescent, 1% of the Moon is Illuminated
Oct 14
Waning Crescent
Oct 15
New
Oct 21
First Quarter
Oct 29
Full
Nov 6
Last Quarter

Hourly Weather History & Observations

Time (EDT) Temp. Dew Point Humidity Pressure Visibility Wind Dir Wind Speed Gust Speed Precip Events Conditions
12:56 AM 54.0 °F 48.9 °F 83% 30.35 in 10.0 mi North 4.6 mph - N/A   Clear
1:56 AM 53.1 °F 48.9 °F 86% 30.32 in 10.0 mi Calm Calm - N/A   Clear
2:56 AM 53.1 °F 48.9 °F 86% 30.30 in 10.0 mi North 3.5 mph - N/A   Clear
3:56 AM 52.0 °F 48.0 °F 86% 30.28 in 10.0 mi Calm Calm - N/A   Clear
4:56 AM 51.1 °F 48.9 °F 92% 30.27 in 10.0 mi Calm Calm - N/A   Clear
5:56 AM 54.0 °F 51.1 °F 90% 30.27 in 10.0 mi North 3.5 mph - N/A   Clear
6:56 AM 54.0 °F 51.1 °F 90% 30.27 in 10.0 mi Calm Calm - N/A   Clear
7:56 AM 54.0 °F 51.1 °F 90% 30.28 in 10.0 mi NNW 3.5 mph - N/A   Clear
8:56 AM 59.0 °F 54.0 °F 83% 30.28 in 10.0 mi Calm Calm - N/A   Clear
9:56 AM 66.9 °F 57.9 °F 73% 30.29 in 10.0 mi Calm Calm - N/A   Clear
10:56 AM 73.0 °F 59.0 °F 61% 30.28 in 10.0 mi ESE 3.5 mph - N/A   Clear
11:56 AM 77.0 °F 60.1 °F 56% 30.26 in 10.0 mi ESE 5.8 mph - N/A   Clear
12:56 PM 77.0 °F 57.9 °F 52% 30.23 in 10.0 mi ESE 9.2 mph - N/A   Clear
2:56 PM 79.0 °F 55.9 °F 45% 30.18 in 10.0 mi South 8.1 mph - N/A   Clear
3:56 PM 79.0 °F 57.9 °F 48% 30.16 in 10.0 mi SSE 6.9 mph - N/A   Clear
4:56 PM 75.9 °F 57.9 °F 54% 30.15 in 10.0 mi South 10.4 mph - N/A   Clear
5:56 PM 73.9 °F 59.0 °F 59% 30.14 in 10.0 mi SSE 5.8 mph - N/A   Clear
6:56 PM 66.0 °F 59.0 °F 78% 30.14 in 10.0 mi SE 5.8 mph - N/A   Clear
7:56 PM 63.0 °F 60.1 °F 90% 30.14 in 10.0 mi Calm Calm - N/A   Clear
8:56 PM 61.0 °F 59.0 °F 93% 30.14 in 10.0 mi Calm Calm - N/A   Clear
9:56 PM 59.0 °F 57.0 °F 93% 30.13 in 10.0 mi Calm Calm - N/A   Clear
10:56 PM 59.0 °F 57.0 °F 93% 30.11 in 10.0 mi SSE 4.6 mph - N/A   Clear
11:56 PM 59.0 °F 57.0 °F 93% 30.09 in 10.0 mi Calm Calm - N/A   Clear